Regional Weather Roundup
Issued by NWS Wakefield, VA

Home | Current Version | Previous Version | Text Only | Print | Product List | Glossary Off
Versions: 1 2 3 4 5 6 7 8 9 10 11 12 13 14 15 16 17 18 19 20 21 22 23 24 25 26 27 28 29 30 31 32 33 34 35 36 37 38 39 40 41 42 43 44 45 46 47 48 49 50

000
ASUS41 KAKQ 250110
RWRAKQ

REGIONAL WEATHER ROUNDUP
NATIONAL WEATHER SERVICE WAKEFIELD VA
900 PM EDT THU JUL 24 2014

Note: "fair" indicates few or no clouds below 12,000 feet with no
significant weather and/or obstructions to visibility. * = Denotes
station may not report precipitation (e.g., rain,snow,etc.),
thunder or fog.

VAZ042-051-052>054-056-250200-
NORTHERN VIRGINIA

CITY           SKY/WX    TMP DP  RH WIND       PRES   REMARKS
WASH NATIONAL  MOCLDY    76  56  49 N9        29.92R
DULLES         MOCLDY    69  58  67 E3        29.93R
FORT BELVOIR   MOCLDY    72  64  75 N1        29.92R
QUANTICO       MOCLDY    72  67  84 NW9       29.92R
FREDERICKSBRG* MOCLDY    70  70 100 W3        29.91R
STAFFORD*      MOCLDY    67  67 100 CALM      29.96R
WARRENTON      FOG       69  69 100 CALM      29.92S VSB 1/2
CULPEPER*      PTCLDY   N/A N/A N/A CALM      29.93S FOG
MANASSAS*      NOT AVBL
LEESBURG*      PTCLDY    70  64  83 CALM      29.94R
WINCHESTER     PTCLDY    64  59  82 CALM      29.95R
$$

VAZ048-049-060>072-079>083-250200-
CENTRAL AND SOUTH CENTRAL VIRGINIA...AND NORTH CENTRAL NORTH CAROLINA

CITY           SKY/WX    TMP DP  RH WIND       PRES   REMARKS
RICHMOND       CLOUDY    71  68  90 CALM      29.93R
CHESTERFIELD*  CLOUDY    70  59  68 CALM      29.95R
HANOVER        CLOUDY    69  67  93 CALM      29.94R FOG
TAPPAHANNOCK*  CLOUDY    68  65  88 CALM      29.92S
CHARLOTTSVILLE LGT RAIN  69  67  93 CALM      29.94R
ORANGE*        MOCLDY    68  64  88 CALM      29.95R
LOUISA*        MOCLDY    66  64  94 CALM      29.93R FOG
FARMVILLE*     CLOUDY    68  66  94 CALM      29.94R
SOUTH HILL*    LGT RAIN  72  72 100 CALM      30.00R
ROANOKE RAPIDS LGT RAIN  63  61  94 CALM      29.94R
RALEIGH        TSTM      70  68  93 E10       29.93S VSB 1
$$

VAZ088>098-250200-
SOUTHEAST VIRGINIA

CITY           SKY/WX    TMP DP  RH WIND       PRES   REMARKS
NORFOLK        HVY RAIN  73  70  90 NE13      29.91R FOG
VIRGINIA BEACH TSTM      74  72  93 NE10      29.90R FOG
NORFOLK NAVAL  TSTM      74  72  93 E10       29.92S
WEST POINT*    CLOUDY    70  67  89 NE5       29.91R
NEWPORT NEWS   RAIN      75  71  87 E8        29.90S
LANGLEY AFB    LGT RAIN  73  73 100 E8        29.89F
FORT EUSTIS    LGT RAIN  72  72 100 SE5       29.88R
WILLIAMSBURG*  CLOUDY    73  72  94 CALM      29.91R
FRANKLIN*      CLOUDY    72 N/A N/A E6        29.89F
WAKEFIELD      LGT RAIN  71  69  93 CALM      29.89S FOG
$$

VAZ020-022-025-037-045-250200-
WESTERN AND SOUTHWEST VIRGINIA

CITY           SKY/WX    TMP DP  RH WIND       PRES   REMARKS
STAUNTON*      PTCLDY    67  64  89 CALM      29.98S
HOT SPRINGS VA CLOUDY    60  58  94 NW5       30.09R FOG
LYNCHBURG      CLOUDY    67  66  97 E6        29.97R
DANVILLE       CLOUDY    70  66  87 E7        29.95R
MARTINSVILLE   MOCLDY    73  66  79 E6        29.98R
ROANOKE        CLOUDY    71  65  81 N3        29.99R
BLACKSBURG     MOCLDY    70  68  94 W3          N/A
DUBLIN*        CLOUDY    69  64  85 N7        30.04R
MARION*        CLOUDY    68  64  86 W5        30.07R
HILLSVILLE*    CLOUDY    68  62  82 N6        30.04R
RICHLANDS*     CLOUDY    64  63  94 NW6       30.07R FOG
WISE*          CLOUDY    61  61 100 N6        30.08S FOG
ABINGDON*      CLOUDY    67  64  89 N5        30.04R
$$

MDZ021>025-VAZ099-100-250200-
SOUTHERN MARYLAND AND THE DELMARVA PENINSULA

CITY           SKY/WX    TMP DP  RH WIND       PRES   REMARKS
PATUXENT RIVER CLOUDY    68  66  93 SW6       29.90R
BAY BRIDGE APT   N/A     75  55  50 N9        29.90R
LEONARDTOWN    CLOUDY    68  64  88 CALM      29.93R
DOVER          CLOUDY    73  61  64 W5        29.87S
GEORGETOWN     CLOUDY    74  68  81 S7        29.89S
EASTON         CLOUDY    73  70  88 CALM      29.94R
CAMBRIDGE      CLOUDY    72  68  88 CALM      29.89R
SALISBURY      NOT AVBL
OCEAN CITY     CLOUDY    71  68  90 CALM      29.89S
WALLOPS ISLAND LGT RAIN  74  70  87 CALM      29.90S
ACCOMACK*      RAIN      72  70  94 E3        29.89S
$$

NCZ012>017-030>032-250200-
EASTERN NORTH CAROLINA

CITY           SKY/WX    TMP DP  RH WIND       PRES   REMARKS
ELIZABETH CITY CLOUDY    76  71  85 S5        29.90R
AHOSKIE*       CLOUDY    69  66  90 CALM      29.94F
EDENTON*       RAIN      76  73  92 S3        29.90R
CURRITUCK*     CLOUDY    76  67  75 CALM      29.91R
KILL DEVIL HLS CLOUDY    74  71  91 CALM      29.89R
MANTEO         NOT AVBL
CAPE HATTERAS  LGT RAIN  75  74  96 SW12      29.89F
GOLDSBORO      TSTM      73  73 100 VRB1      29.89R FOG
WASHINGTON     CLOUDY    74  72  94 W5        29.92R
GREENVILLE     TSTM      72  70  94 N17G33    29.96R
NEW BERN       MOCLDY    74  71  91 SW6       29.89F
WILMINGTON     PTCLDY    75  73  93 E6        29.88F
$$

VAZ048-250200-
ELSEWHERE

CITY           SKY/WX    TMP DP  RH WIND       PRES   REMARKS
HARRISBURG PA  MOCLDY    73  53  49 N5        29.93R
BALTIMORE      MOCLDY    72  58  61 NW3       29.91R
ANNAPOLIS      CLOUDY    75  62  64 N6        29.90R
ANDREWS AFB    MOCLDY    70  58  66 N8        29.92R
WILMINGTON DE  CLOUDY    74  56  53 N8        29.90R
PHILADELPHIA   CLOUDY    77  53  43 N10       29.89S
WILDWOOD NJ*   CLOUDY    72  63  73 CALM      29.88F
ATLANTIC CITY  CLOUDY    71  67  87 E6        29.88R
HENDERSON NC   LGT RAIN  68  65  92 NE6       29.94R
GREENSBORO     CLOUDY    72  69  90 NE12      29.95R
ROCKY MOUNT    RAIN      68  67  96 NE12      29.94F FOG
FAYETTEVILLE   MOCLDY    84  71  65 W7        29.86R
CHARLOTTE      MOCLDY    73  70  90 NW7       29.93S
$$

VAZ100-250200-
MARINE

STATION/POSITION TIME  TEMP    WIND        PRES    WAVE   SWELL
                       AIR SEA DIR/SP/G            HT/PER HT/PER
                 (UTC) (F)     (DEG/KT/KT) (MB)    (FT/S) (FT/S)
44066 TX TWR #4  0100   73 74  310/  6/  6 1011.2R   3/ 9   2/ 9
CAPE MAY NJ      0100   74 79  310/  3/  4 1011.1F
LEWES DE         0100   74 74  220/  3/  3 1011.4F
15NM E FENWICK I 0100   76 76              1011.9R   2/ 6
OCEAN-CITY-INLET 0100   74 70  170/  3/  4 1011.7S
WACHAPREAGUE VA  0100   74 81  120/  6/  7 1012.2S
THOMAS POINT MD  0100   76 79  340/  9/ 10 1012.9R
GOOSES REEF MD   0100   76     310/  4/  6 1012.8R
COVE POINT MD    0100   71     280/  5/  7 1012.2S
SOLOMONS ISLAND  0100      81                N/A
BISHOPS HEAD MD  0100   73 80  340/  2/  2 1011.7R
PINEY POINT MD   0100           CALM  /  1   N/A
POTOMAC MD       0000   73      20/  4/  6 1011.5S
CAMBRIDGE MD     0100   77 80  340/  5/  6 1011.9R
LEWISETTA VA     0100   71 80  320/  4/  5 1012.3R
RAPPAHANNOCK LGT 0100           60/ 12/ 13 1012.5F
STINGRAY PT      0100   75      70/ 10/ 14 1012.4S
YORK RVR RNG VA  0100   75     100/ 14/ 17 1011.1F
YORKTOWN VA      0100   74 81   90/ 13/ 14 1011.9R
JAMESTOWN VA     0100   71      90/  4/  6   N/A
DOMINION TERM VA 0100   72      60/  9/ 12 1012.6F
KIPTOPEKE VA     0100      81   70/  3/  4   N/A
CHES BAY BRIDGE  0100   73 78   30/ 16/ 18 1012.0F
CAPE HENRY VA    0100   74      20/ 16/ 17 1011.6R
WILLOUBY STN VA  0100           50/ 14/ 16 1011.7F
S CRANEY ISL VA  0100           10/ 13/ 15 1012.7F
CAPE HENRY BUOY  0100      78                N/A     2/ 6
1ST LANDING BUOY 0100   74      20/ 16/ 19 1012.5S
CAPE CHARLES BUO 0100      77                N/A     2/ 6
OFFSHORE WE BUOY 0100      78                N/A     2/ 7
64NM E OF VA BCH 0100   76 78   40/  4/  6 1011.9R   3/ 6   3/ 6
DUCK PIER NC     0100   76 76  120/  3/  3 1011.6R
44056 DUCK FRF   0100                        N/A     2/ 9
OREGON INLET NC  0100   75 83  100/  1/  3 1012.0R
HATTERAS NC      0100   75 81  220/ 11/ 15 1012.4R
DIAMOND SHLS NC  0100          VRB 16/ 19  1011.5F   4/ 8   2/ 8
CAPE LOOKOUT NC  0000   73     220/  8/  9 1013.2R
$$



USA.gov is the U.S. government's official web portal to all federal, state and local government web resources and services.